Wetbulb
27.67 29.78 29.34 28.60 29.12 29.41 27.77 27.44 24.40 24.21 26.21 29.76 32.44 33.08 33.23 34.07 33.85 34.54 33.98 34.57 34.56 34.29 34.00 34.45 35.27 36.50 37.09 37.39 38.08 38.35 38.39 38.76 39.13 40.09 40.51 40.75 41.16 41.47 41.89 40.81 40.51 38.79 37.43 35.49
23.06 28.62 28.48 27.48 28.69 28.96 29.71 30.41 28.76 28.60 27.42 33.12 32.66 32.95 32.91 31.82 33.81 33.23 33.24 34.09 34.67 34.86 34.85 34.65 34.61 35.81 37.07 37.14 37.28 37.79 37.23 37.66 38.83 39.27 39.57 40.00 40.45 40.76 40.75 40.34 39.31 37.33 35.27 35.47
21.29 26.70 26.64 22.57 26.61 28.98 27.91 29.05 31.42 27.17 32.37 32.68 32.57 34.10 33.02 31.86 32.75 32.71 32.92 33.57 33.68 33.73 33.82 34.02 34.43 35.76 35.58 36.76 37.22 36.62 36.62 37.54 37.82 38.16 38.51 38.87 39.30 39.33 39.40 38.91 39.02 37.86 35.74 34.43
19.62 22.54 14.25 26.12 30.46 31.34 30.02 31.31 31.88 31.29 32.46 34.21 33.79 33.33 32.84 32.72 31.99 32.72 33.29 33.58 33.95 33.89 34.03 34.59 34.58 34.59 35.50 36.15 35.69 35.67 36.01 36.17 36.82 36.87 37.19 37.71 37.31 37.51 38.02 38.09 38.09 38.19 37.14 34.91
20.10 18.91 24.38 27.49 28.81 29.19 28.66 29.71 32.60 32.38 32.65 33.09 33.08 31.83 30.48 34.09 33.55 33.22 33.15 33.93 34.42 34.26 34.27 34.01 33.90 34.52 34.89 35.57 34.78 34.71 34.92 35.16 36.17 36.43 36.42 36.60 35.81 35.79 36.22 35.54 36.21 36.20 35.73 34.47
22.98 19.95 19.02 26.94 30.56 33.14 32.14 25.39 32.91 33.62 32.59 31.90 31.53 27.64 29.17 33.62 34.47 33.38 33.36 34.70 34.66 34.87 34.77 33.53 33.40 33.71 33.33 33.58 33.62 33.52 34.47 34.98 35.75 35.66 35.04 34.70 34.76 34.59 34.89 34.27 35.17 35.62 35.28 33.09
23.55 21.51 25.90 31.80 32.81 33.48 23.14 28.12 32.30 33.04 32.60 31.82 30.78 31.12 32.64 34.75 33.71 33.51 33.90 34.28 35.14 33.75 33.17 33.30 33.29 33.09 32.96 33.05 32.54 34.11 34.32 34.53 34.60 34.57 33.81 34.05 33.71 33.38 33.71 33.76 33.79 33.45 33.18 33.35
25.11 22.68 20.55 33.56 32.32 29.46 31.87 31.85 33.18 32.97 33.33 33.06 33.30 34.09 34.56 34.25 32.98 33.62 33.39 33.83 33.80 32.62 32.65 33.98 33.36 31.64 31.43 31.42 33.64 33.17 33.03 32.50 32.19 32.46 33.30 34.05 32.93 33.22 33.03 32.08 31.94 31.88 31.70 31.68
28.08 28.32 33.56 34.50 32.77 34.04 34.47 33.76 33.53 33.55 33.82 34.55 33.93 33.61 33.38 33.00 32.12 32.33 32.11 31.87 32.08 31.33 31.07 32.35 32.62 31.15 29.83 32.20 32.89 32.31 31.11 31.36 31.35 31.70 31.77 32.13 31.02 31.97 32.59 32.21 31.26 30.68 30.89 30.36
29.89 33.17 33.59 35.40 33.57 34.08 34.21 34.10 34.60 34.78 34.48 34.34 32.79 32.69 32.30 32.53 31.99 31.05 30.99 30.78 31.05 30.20 29.70 30.20 30.73 30.00 30.65 31.84 32.01 31.65 30.88 31.03 31.55 31.03 31.88 32.11 32.02 31.74 31.08 31.01 30.89 30.80 30.33 29.49
29.10 31.85 32.72 33.63 33.60 33.82 33.59 34.07 33.50 33.71 33.47 33.13 32.19 31.39 30.99 30.61 30.47 30.51 30.55 30.73 30.23 28.60 28.48 29.23 29.92 29.08 30.72 32.16 31.97 30.97 31.12 31.20 31.00 31.21 30.87 30.99 31.35 31.75 31.80 33.10 33.59 32.37 32.38 31.89
31.46 33.68 33.70 34.03 34.78 34.65 33.01 32.52 32.87 31.98 31.10 31.74 31.55 30.80 30.17 29.92 30.07 29.55 29.38 29.48 28.76 28.66 27.92 29.28 29.88 30.02 31.51 32.13 31.91 30.95 30.29 30.92 31.08 31.23 30.88 30.91 30.71 31.04 35.80 37.08 37.90 38.03 38.15 37.13
35.82 33.53 34.37 33.07 33.85 33.52 32.72 32.40 32.27 31.51 30.71 30.20 29.95 30.25 28.53 29.10 29.37 31.73 30.80 28.69 27.87 27.96 29.43 29.61 29.47 29.86 31.55 31.87 31.42 30.57 29.96 30.35 30.41 31.40 30.37 29.95 30.46 31.08 30.62 33.97 37.19 37.33 37.27 37.17
33.82 32.84 30.84 31.55 31.37 32.56 32.18 31.85 34.33 31.24 30.95 30.76 30.06 30.06 29.15 28.38 28.51 27.92 27.82 29.42 28.79 27.91 29.01 29.39 29.17 29.20 30.98 31.15 30.90 30.77 30.74 33.36 30.85 30.26 30.16 31.37 32.31 33.01 33.39 32.35 31.55 32.01 34.83 34.88
34.24 33.91 33.93 32.83 31.08 30.50 30.72 30.79 29.60 29.45 29.33 29.31 29.29 28.48 27.91 27.11 27.03 27.70 28.69 28.83 28.67 27.85 28.29 28.40 27.50 29.02 31.23 31.01 30.52 30.48 30.36 30.18 30.32 31.32 33.04 33.92 33.54 32.91 32.90 32.23 32.12 31.99 31.54 32.17
31.86 30.55 30.87 30.14 29.25 29.51 29.66 28.94 27.57 27.92 27.91 27.90 27.70 27.77 27.57 27.23 26.62 27.24 28.14 28.15 25.48 26.96 28.39 28.17 28.09 30.11 30.87 30.62 30.32 30.67 30.78 33.30 34.23 33.05 33.15 33.23 32.88 32.12 32.11 31.97 32.10 31.59 30.92 29.53
26.15 26.01 27.31 27.04 28.16 28.68 28.92 28.85 28.37 28.02 27.99 27.32 27.43 27.54 26.73 26.28 26.27 26.44 27.35 28.03 26.22 26.89 28.74 28.24 28.20 30.17 30.32 30.25 30.11 30.71 32.41 32.37 34.52 33.47 32.05 32.97 32.99 32.38 32.31 32.12 31.55 31.64 31.45 31.85
31.06 30.58 30.25 29.77 28.71 28.29 28.37 29.00 28.60 27.69 26.17 27.52 27.20 26.00 24.62 23.78 24.88 26.41 27.50 28.20 26.73 27.59 28.67 28.55 28.98 29.27 29.64 29.70 31.17 32.15 32.30 32.47 32.81 32.50 32.89 33.34 33.35 33.38 32.76 31.75 31.46 31.29 31.82 31.61
30.62 29.88 29.50 29.42 29.30 28.78 28.32 26.88 26.28 26.44 26.39 25.93 23.66 23.83 25.38 26.27 26.55 26.88 27.41 25.52 25.26 25.35 27.85 29.45 31.28 31.45 29.39 30.51 33.25 33.43 33.00 32.77 32.93 33.18 33.45 34.46 33.91 33.16 32.20 31.78 31.42 31.72 32.07 31.12
29.72 29.95 29.91 29.04 29.88 28.75 27.98 28.42 28.14 27.36 27.88 26.92 26.11 25.14 25.81 27.05 27.58 27.12 27.25 25.46 27.28 28.34 29.19 29.05 29.05 28.82 29.68 30.91 34.40 33.63 33.36 33.29 33.24 33.30 33.46 33.47 33.52 32.89 32.72 32.80 32.26 31.57 31.47 31.38
26.66 26.72 28.31 28.80 28.02 28.32 27.99 27.86 27.14 27.07 27.13 26.38 25.63 26.48 26.40 27.35 27.78 27.07 25.49 25.46 28.70 30.12 29.61 31.55 30.17 29.79 30.51 32.57 34.13 33.93 34.01 33.48 33.27 33.20 33.12 32.95 32.74 32.58 32.36 31.91 31.29 31.01 30.73 30.93
27.04 24.83 25.11 24.92 25.94 26.92 27.88 27.19 26.44 25.89 25.64 26.34 26.77 26.23 25.54 25.83 26.67 26.83 27.95 26.42 29.01 32.27 30.48 29.34 29.39 31.20 32.00 35.16 33.84 33.89 33.64 33.30 33.10 33.09 32.65 32.20 31.81 31.67 31.79 31.70 30.72 30.51 30.53 30.26
28.19 26.83 26.06 25.44 26.09 26.15 25.99 25.00 25.36 25.81 26.08 26.37 26.49 26.83 26.41 27.24 27.67 25.82 25.25 29.26 27.32 29.23 29.93 30.15 32.27 34.22 35.04 33.06 33.60 33.17 32.06 31.34 31.07 31.22 31.60 31.77 31.76 31.74 31.79 31.67 31.23 30.80 30.75 29.78
26.04 26.09 25.86 26.14 18.14 17.02 21.80 26.86 25.85 26.87 25.58 27.06 27.60 27.92 26.78 26.17 27.07 27.33 28.14 31.04 32.53 31.88 29.95 30.79 32.13 34.23 35.23 32.90 32.95 31.01 31.06 31.07 31.34 29.17 28.56 30.95 29.01 28.25 29.35 31.15 29.82 29.89 30.28 29.59
25.39 24.77 18.52 19.08 21.60 24.36 25.23 26.21 24.77 25.72 25.29 25.31 26.45 27.15 26.59 27.28 26.40 28.87 28.79 28.66 31.26 30.72 28.55 31.34 32.86 33.41 31.04 32.20 31.87 31.53 31.28 28.69 28.13 28.13 27.26 27.07 27.28 28.95 27.31 28.02 28.63 29.17 29.55 28.38
24.36 25.56 25.28 25.14 25.95 27.34 27.50 26.56 25.38 27.07 26.90 26.47 27.90 28.73 28.23 27.47 27.01 28.35 27.91 29.27 28.21 29.56 28.80 28.68 28.39 29.06 31.84 31.71 31.57 28.94 27.62 26.21 26.17 26.07 26.13 26.04 26.49 27.61 27.83 27.67 28.14 28.90 29.00 28.19
23.09 27.76 25.42 25.11 26.65 26.09 26.01 26.13 25.17 25.70 27.69 26.69 26.75 28.79 28.38 28.02 26.75 28.10 29.48 28.32 27.98 27.44 27.31 27.86 28.04 30.87 32.05 30.70 27.67 25.98 25.71 25.78 25.93 24.96 25.32 25.56 26.31 27.58 27.57 27.70 28.66 26.64 25.04 26.05
MSLP
1022.72 1022.48 1022.35 1022.21 1022.22 1022.50 1022.83 1022.47 1022.52 1021.39 1021.01 1020.15 1019.91 1020.12 1020.33 1020.51 1020.88 1021.21 1021.61 1021.90 1022.04 1022.12 1021.99 1021.85 1021.60 1021.13 1020.63 1020.15 1019.72 1019.25 1018.93 1018.56 1018.22 1017.64 1017.21 1016.91 1016.59 1016.20 1015.81 1015.55 1015.26 1015.01 1014.88 1014.74
1023.34 1022.74 1022.66 1022.25 1021.70 1021.68 1021.70 1021.70 1021.27 1020.90 1020.36 1019.75 1019.69 1020.14 1020.47 1020.71 1021.03 1021.44 1021.84 1022.04 1022.09 1022.12 1022.08 1021.91 1021.60 1021.15 1020.68 1020.25 1019.70 1019.18 1018.80 1018.43 1017.96 1017.50 1017.08 1016.70 1016.29 1015.88 1015.47 1015.08 1014.67 1014.38 1014.15 1013.91
1024.01 1023.29 1022.56 1021.42 1019.76 1019.76 1019.97 1019.75 1019.66 1020.03 1018.46 1019.30 1019.76 1020.08 1020.54 1021.10 1021.28 1021.55 1021.71 1021.92 1022.13 1022.24 1022.08 1021.74 1021.47 1021.10 1020.67 1020.11 1019.59 1019.26 1018.89 1018.33 1017.92 1017.45 1017.02 1016.52 1016.05 1015.63 1015.19 1014.80 1014.26 1013.98 1013.75 1013.44
1024.81 1023.75 1022.14 1018.79 1018.24 1018.33 1018.73 1018.47 1018.45 1018.34 1018.51 1018.73 1019.30 1020.15 1020.73 1020.90 1021.14 1021.38 1021.58 1021.82 1021.94 1021.93 1021.85 1021.61 1021.27 1020.82 1020.40 1019.98 1019.63 1019.26 1018.73 1018.12 1017.60 1017.25 1016.83 1016.28 1015.79 1015.30 1014.71 1014.25 1013.86 1013.39 1012.96 1012.52
1024.76 1024.07 1021.13 1018.17 1017.84 1017.95 1018.20 1017.50 1017.11 1017.82 1018.43 1018.89 1019.68 1020.31 1020.80 1020.78 1020.97 1021.25 1021.44 1021.61 1021.75 1021.79 1021.64 1021.29 1020.98 1020.65 1020.39 1019.88 1019.50 1019.14 1018.66 1018.05 1017.50 1017.02 1016.61 1016.14 1015.57 1014.90 1014.27 1013.84 1013.32 1012.76 1012.22 1011.87
1024.90 1024.06 1021.48 1018.09 1017.36 1017.29 1017.58 1017.45 1016.78 1017.42 1018.46 1019.16 1019.92 1020.61 1020.64 1020.76 1020.94 1021.08 1021.21 1021.36 1021.40 1021.31 1021.26 1021.12 1020.81 1020.67 1020.42 1019.85 1019.37 1018.93 1018.32 1017.81 1017.29 1016.87 1016.45 1015.84 1015.27 1014.60 1013.88 1013.45 1012.76 1012.20 1011.57 1011.11
1024.48 1023.46 1020.38 1017.75 1017.36 1017.42 1018.05 1017.84 1017.32 1017.79 1018.57 1019.33 1019.87 1020.00 1020.26 1020.57 1020.82 1020.96 1021.06 1021.13 1021.15 1021.22 1021.28 1020.91 1020.64 1020.52 1020.13 1019.59 1019.16 1018.53 1017.96 1017.49 1017.05 1016.52 1015.93 1015.20 1014.42 1013.91 1013.35 1012.81 1012.17 1011.62 1010.93 1010.25
1023.78 1022.93 1020.10 1017.43 1017.70 1017.82 1017.35 1017.55 1017.74 1018.28 1018.78 1019.25 1019.59 1020.09 1020.35 1020.58 1020.70 1020.80 1020.92 1020.92 1020.97 1021.19 1021.08 1020.57 1020.37 1020.34 1020.11 1019.52 1018.68 1018.15 1017.65 1017.23 1016.64 1015.97 1015.33 1014.54 1013.98 1013.33 1012.86 1012.41 1011.81 1011.13 1010.44 1009.60
1020.99 1019.12 1017.50 1017.22 1016.96 1016.78 1017.15 1017.50 1018.00 1018.36 1018.81 1019.09 1019.69 1020.12 1020.45 1020.71 1020.82 1020.91 1021.03 1021.11 1021.08 1021.19 1021.03 1020.41 1020.18 1019.89 1019.55 1018.59 1018.08 1017.58 1017.13 1016.54 1015.91 1015.22 1014.66 1014.05 1013.48 1012.83 1012.17 1011.72 1011.12 1010.40 1009.94 1009.32
1019.67 1017.09 1016.99 1016.93 1017.01 1017.15 1017.34 1017.70 1018.08 1018.32 1018.82 1019.30 1019.76 1020.06 1020.35 1020.59 1020.78 1020.87 1020.77 1020.74 1020.72 1020.79 1020.68 1020.21 1019.77 1019.49 1018.98 1018.22 1017.65 1017.16 1016.55 1015.93 1015.33 1014.75 1014.04 1013.42 1012.91 1012.35 1011.58 1010.89 1010.25 1009.78 1009.10 1008.33
1018.16 1017.15 1017.03 1016.79 1016.77 1017.05 1017.49 1017.79 1018.21 1018.61 1018.92 1019.37 1019.80 1020.13 1020.31 1020.50 1020.60 1020.61 1020.55 1020.40 1020.39 1020.54 1020.29 1019.68 1019.21 1018.86 1018.21 1017.71 1017.19 1016.66 1016.06 1015.41 1014.80 1014.24 1013.55 1012.74 1012.15 1011.59 1010.81 1010.01 1009.58 1008.73 1008.07 1007.44
1016.69 1016.19 1016.30 1016.37 1016.42 1016.99 1017.59 1017.96 1018.35 1018.75 1019.23 1019.51 1019.73 1020.01 1020.15 1020.39 1020.46 1020.53 1020.39 1020.27 1020.26 1020.06 1019.69 1018.96 1018.63 1018.32 1017.61 1017.17 1016.71 1016.22 1015.58 1014.98 1014.42 1013.72 1012.97 1012.32 1011.57 1010.44 1009.93 1009.16 1008.43 1007.81 1007.06 1006.45
1016.37 1016.28 1016.40 1016.45 1016.61 1017.09 1017.57 1018.09 1018.58 1018.98 1019.24 1019.55 1019.73 1019.98 1020.26 1020.41 1020.27 1020.27 1020.28 1020.20 1019.97 1019.64 1019.01 1018.34 1017.98 1017.61 1016.79 1016.49 1016.07 1015.66 1015.13 1014.43 1013.86 1013.24 1012.56 1011.94 1011.18 1010.24 1008.96 1007.39 1007.00 1006.56 1006.13 1005.52
1016.34 1016.48 1016.93 1016.94 1017.14 1017.56 1017.91 1018.41 1018.78 1019.15 1019.46 1019.73 1019.97 1020.10 1020.26 1020.44 1020.25 1020.11 1019.83 1019.50 1019.20 1018.90 1018.47 1017.85 1017.30 1016.75 1016.04 1015.73 1015.36 1014.97 1014.42 1013.87 1013.36 1012.55 1011.93 1011.14 1010.30 1009.49 1008.69 1007.84 1006.73 1005.43 1005.03 1005.03
1017.00 1016.85 1016.70 1016.87 1017.41 1017.95 1018.35 1018.84 1019.19 1019.50 1019.77 1019.96 1020.07 1020.26 1020.29 1020.32 1020.10 1019.79 1019.35 1018.92 1018.60 1018.29 1017.72 1017.19 1016.57 1015.74 1015.23 1015.01 1014.70 1014.16 1013.63 1013.06 1012.47 1011.62 1010.77 1010.16 1009.47 1008.83 1008.14 1007.35 1006.47 1005.51 1004.64 1004.25
1017.25 1017.32 1017.35 1017.55 1017.99 1018.36 1018.73 1019.20 1019.53 1019.85 1020.05 1020.12 1020.21 1020.07 1020.08 1019.99 1019.84 1019.43 1018.93 1018.40 1018.18 1017.57 1016.88 1016.34 1015.78 1014.90 1014.53 1014.26 1013.87 1013.26 1012.64 1012.10 1011.58 1010.74 1009.86 1009.21 1008.64 1008.02 1007.25 1006.58 1005.80 1005.01 1004.34 1003.90
1017.51 1017.78 1017.89 1018.24 1018.50 1018.73 1019.07 1019.51 1019.79 1019.99 1020.12 1020.20 1020.00 1020.01 1019.97 1019.71 1019.37 1018.81 1018.05 1017.44 1017.16 1016.82 1016.07 1015.57 1014.91 1014.09 1013.67 1013.42 1013.13 1012.52 1011.77 1011.03 1010.53 1009.79 1009.16 1008.41 1007.66 1007.00 1006.39 1005.71 1004.96 1004.33 1003.71 1003.27
1017.17 1017.31 1017.65 1018.01 1018.58 1018.97 1019.28 1019.46 1019.76 1019.95 1020.09 1019.79 1019.71 1019.64 1019.50 1019.27 1018.74 1017.92 1017.34 1016.75 1016.44 1015.81 1014.93 1014.54 1013.91 1013.42 1012.93 1012.62 1012.25 1011.51 1010.90 1010.17 1009.48 1008.83 1008.02 1007.34 1006.70 1006.05 1005.37 1004.81 1004.38 1003.69 1002.90 1002.55
1017.45 1017.78 1018.12 1018.43 1018.74 1018.94 1019.06 1019.17 1019.36 1019.47 1019.51 1019.38 1019.30 1019.07 1018.74 1018.31 1017.88 1017.33 1016.71 1016.41 1015.83 1015.05 1013.84 1013.40 1012.97 1012.54 1012.17 1011.65 1011.15 1010.38 1009.80 1009.06 1008.30 1007.63 1006.99 1006.20 1005.45 1005.00 1004.46 1003.94 1003.42 1002.89 1002.36 1001.86
1018.14 1018.28 1018.49 1018.67 1018.77 1018.83 1018.96 1018.96 1019.02 1019.01 1018.78 1018.71 1018.58 1018.27 1017.93 1017.36 1016.87 1016.49 1016.07 1015.58 1014.74 1014.07 1013.38 1012.82 1012.36 1011.87 1011.24 1010.55 1009.96 1009.34 1008.72 1008.06 1007.26 1006.48 1005.77 1005.06 1004.39 1003.82 1003.41 1002.95 1002.44 1002.06 1001.70 1001.15
1018.71 1018.55 1018.56 1018.70 1018.84 1018.88 1018.85 1018.70 1018.70 1018.51 1018.19 1018.05 1017.90 1017.46 1017.11 1016.37 1016.00 1015.70 1015.28 1014.72 1013.13 1012.68 1012.38 1011.89 1011.62 1011.10 1010.40 1009.70 1008.94 1008.27 1007.70 1007.00 1006.26 1005.47 1004.69 1004.06 1003.58 1003.05 1002.47 1001.97 1001.56 1001.26 1000.84 1000.47
1018.76 1018.81 1018.72 1018.76 1018.79 1018.55 1018.29 1018.13 1017.93 1017.80 1017.54 1017.15 1016.72 1016.44 1016.26 1015.65 1015.23 1014.60 1013.84 1013.70 1012.42 1011.82 1011.48 1011.03 1010.63 1010.14 1009.49 1008.63 1007.94 1007.22 1006.70 1006.15 1005.48 1004.75 1004.02 1003.38 1002.66 1001.97 1001.44 1000.98 1000.66 1000.44 1000.15 999.88
1018.62 1018.59 1018.53 1018.48 1018.35 1018.10 1017.69 1017.66 1017.26 1017.08 1016.74 1016.33 1015.85 1015.37 1015.19 1014.72 1014.44 1014.39 1013.50 1011.65 1011.92 1011.35 1010.83 1010.15 1009.52 1008.96 1008.25 1007.64 1006.97 1006.40 1005.90 1005.32 1004.63 1003.91 1003.21 1002.54 1001.94 1001.17 1000.40 999.93 999.88 999.71 999.47 999.19
1018.28 1018.20 1018.03 1017.76 1017.96 1017.89 1017.34 1016.52 1016.31 1015.89 1015.69 1015.20 1014.71 1014.29 1014.39 1014.06 1013.18 1013.08 1012.56 1011.64 1010.95 1010.58 1010.10 1009.42 1008.62 1008.01 1007.34 1006.70 1006.06 1005.65 1005.14 1004.54 1003.94 1003.51 1002.89 1001.92 1001.44 1000.85 1000.11 999.47 999.11 999.07 998.78 998.54
1017.73 1017.50 1017.42 1017.42 1017.40 1016.88 1016.23 1015.64 1015.46 1014.81 1014.55 1014.25 1013.68 1013.28 1013.09 1013.02 1013.12 1011.63 1011.42 1011.00 1010.37 1009.97 1009.32 1008.61 1007.98 1007.24 1006.62 1005.86 1005.38 1004.91 1004.47 1004.20 1003.53 1002.91 1002.32 1001.60 1000.95 1000.10 999.82 999.17 998.71 998.43 998.08 997.90
1017.08 1016.93 1016.65 1016.32 1016.03 1015.56 1015.19 1014.98 1014.80 1013.98 1013.74 1013.39 1012.54 1012.15 1011.95 1011.67 1011.39 1010.95 1010.46 1010.03 1009.62 1009.11 1008.63 1007.94 1007.33 1006.66 1005.86 1005.26 1004.88 1004.68 1004.22 1003.69 1003.04 1002.42 1001.87 1001.18 1000.42 999.68 999.02 998.51 998.08 997.74 997.47 997.34
1016.18 1016.14 1015.75 1015.25 1014.74 1014.61 1014.38 1014.14 1013.84 1013.11 1012.74 1012.70 1012.05 1011.01 1010.97 1010.61 1010.31 1010.02 1009.53 1009.06 1008.71 1008.33 1007.84 1007.15 1006.61 1005.90 1005.28 1004.97 1004.80 1004.33 1003.76 1003.17 1002.66 1002.14 1001.46 1000.73 999.89 999.02 998.43 997.91 997.44 997.25 997.13 997.13
Wind_Speed
4 5 2 4 5 7 9 6 8 5 9 8 8 10 7 4 2 5 5 6 6 6 7 6 7 7 7 6 7 6 7 7 7 7 7 7 7 7 7 7 9 9 9 9
4 2 4 7 10 11 10 9 12 8 8 7 4 6 4 3 5 4 3 4 6 6 7 7 7 7 7 7 7 6 6 7 7 7 7 7 7 8 7 8 8 7 9 11
5 4 7 9 13 14 6 6 12 14 13 7 6 7 6 5 5 5 3 3 3 4 5 6 7 6 7 8 8 8 8 9 7 7 9 9 9 9 9 8 7 8 9 9
4 4 3 7 3 4 10 8 12 4 4 12 7 5 5 4 6 5 2 1 4 4 6 6 6 7 7 7 7 7 8 8 8 7 9 9 8 10 10 8 9 10 10 10
2 3 9 5 4 7 7 8 9 10 6 7 7 6 2 3 2 3 1 1 3 3 4 6 7 7 7 10 7 7 8 9 10 10 11 11 11 11 11 9 10 10 9 10
2 2 7 4 2 2 2 7 6 8 8 8 7 3 3 4 3 2 1 1 4 6 5 7 7 6 7 9 8 10 10 12 12 11 11 12 12 12 9 7 11 9 11 8
3 4 10 7 4 2 2 6 3 5 6 7 5 3 5 5 3 1 1 4 4 4 6 7 7 6 10 12 12 12 11 11 11 12 12 12 11 8 10 12 11 11 12 10
4 4 11 6 4 7 4 2 5 4 4 5 6 6 5 4 2 2 4 6 6 6 7 10 7 5 9 12 13 11 11 11 11 11 10 11 13 12 12 10 12 12 12 11
11 10 4 6 2 2 4 5 5 6 4 6 7 5 5 4 2 3 5 5 4 5 7 10 8 6 10 14 12 12 10 12 12 12 11 11 11 12 11 10 10 11 9 10
2 6 10 8 3 4 4 4 5 5 6 6 6 6 4 3 3 4 4 5 3 6 7 11 8 8 11 13 12 12 14 13 12 12 14 11 9 9 9 9 10 10 10 10
6 7 5 3 6 7 6 7 6 5 5 7 7 5 4 3 4 5 6 5 4 6 7 11 9 8 12 12 12 13 13 13 12 10 12 12 11 10 10 12 11 11 11 10
9 5 5 5 6 7 8 8 7 7 6 4 5 5 3 5 5 5 7 6 6 7 8 11 9 9 13 11 11 12 13 11 11 11 11 10 11 13 19 23 25 24 26 19
10 2 2 2 5 5 7 7 6 6 5 5 2 3 2 4 4 8 7 7 7 8 11 12 11 11 14 12 10 11 12 13 11 13 11 11 11 12 14 17 24 22 22 22
3 6 3 2 4 6 6 6 7 4 3 3 3 3 3 5 7 7 8 10 8 8 13 13 12 13 12 9 10 12 13 21 11 11 10 11 11 11 10 12 13 14 15 17
6 4 2 5 6 6 5 5 4 1 2 5 4 5 5 8 8 9 10 10 10 10 14 13 10 14 11 9 11 13 11 10 10 11 10 12 11 11 11 12 12 12 12 12
0 2 3 5 7 7 6 4 2 2 3 5 7 8 8 8 8 10 11 11 7 11 14 13 11 15 12 11 12 11 11 19 18 12 11 10 9 10 10 11 11 11 9 9
4 2 5 5 6 5 4 3 2 4 5 7 9 7 7 8 9 11 12 10 7 11 15 11 14 14 13 10 11 9 11 11 18 12 12 11 10 11 11 11 11 11 10 9
2 4 6 8 7 5 4 6 5 6 6 7 7 7 7 7 12 13 13 11 9 13 15 11 12 12 11 8 10 11 10 11 11 12 12 11 11 11 12 10 10 12 10 9
5 8 7 7 6 5 5 6 6 6 7 7 5 8 8 11 11 12 12 9 12 14 16 11 14 16 12 14 16 10 11 13 13 11 12 17 13 11 10 10 11 10 11 9
5 4 5 3 6 6 7 6 7 6 7 7 8 8 10 12 11 11 11 13 15 12 13 14 13 13 14 15 20 10 12 13 14 13 12 12 12 11 10 13 11 9 10 8
3 4 5 6 6 6 7 7 7 9 8 8 9 11 11 13 12 10 11 9 17 13 12 16 11 10 11 15 14 11 12 13 13 13 12 10 10 12 11 11 10 9 9 8
4 4 7 7 7 8 8 7 8 8 9 10 11 9 8 12 10 11 12 10 12 20 12 9 8 14 14 24 13 12 12 12 12 11 12 12 12 11 11 10 8 8 9 8
7 6 6 7 8 9 6 7 8 9 11 11 12 12 9 9 8 8 11 12 5 11 10 11 16 22 26 14 11 11 12 14 13 13 12 10 11 13 12 8 8 7 9 7
7 8 8 7 3 4 10 13 8 10 8 12 13 12 9 8 11 6 10 18 23 18 12 13 18 24 26 11 10 11 13 13 10 9 14 17 10 12 12 11 6 8 8 9
9 9 4 5 7 9 9 10 8 10 7 9 12 10 10 8 9 12 8 9 18 16 11 17 23 24 12 10 11 11 8 9 11 10 11 11 11 8 9 10 8 8 7 5
9 8 6 8 9 9 8 6 7 9 7 8 11 8 7 6 8 10 9 13 11 14 10 10 10 11 11 10 9 8 10 10 11 10 13 11 11 11 9 9 8 7 5 4
6 10 6 7 7 6 7 7 7 10 9 6 10 11 7 7 6 9 11 8 8 9 9 9 9 12 10 7 9 9 9 9 13 11 10 10 10 10 8 8 7 4 2 2
Wind_Direction
257 251 258 249 236 191 204 200 190 227 212 209 206 197 176 159 83 105 44 26 14 3 349 340 336 329 327 327 330 331 338 338 326 317 316 310 302 291 281 268 262 252 247 237
283 260 215 250 235 226 222 225 253 252 257 213 218 114 141 188 138 101 65 33 13 360 342 333 329 324 320 313 317 327 328 319 311 316 315 309 304 300 292 283 268 251 242 240
264 349 319 286 229 213 189 205 212 224 229 169 184 176 181 183 147 121 86 45 353 328 324 324 321 313 318 322 325 334 328 323 316 312 314 313 307 306 301 289 282 268 260 250
255 355 290 245 185 199 204 235 220 249 198 183 166 129 138 146 149 146 137 20 343 331 318 306 306 312 312 316 312 308 313 312 314 309 306 306 306 303 298 292 286 284 274 257
156 212 290 279 190 181 181 278 203 202 156 139 124 120 147 160 138 144 138 310 271 276 277 304 321 318 319 318 311 315 305 303 310 311 305 305 300 298 295 287 286 277 267 265
127 198 244 257 213 170 126 283 182 157 161 153 144 160 230 170 171 115 24 271 301 317 316 315 307 314 317 316 321 317 316 315 313 309 302 301 296 294 292 282 286 285 279 253
202 265 286 244 191 158 125 257 118 124 141 151 172 175 153 150 122 113 273 313 313 316 304 290 304 322 323 319 312 305 300 299 298 298 296 292 289 288 290 290 290 286 279 270
148 206 269 158 80 176 209 47 118 113 146 138 130 142 139 126 101 7 337 331 335 328 314 310 312 306 298 297 299 293 291 286 287 287 287 296 294 296 292 286 290 291 285 283
188 213 239 218 225 196 160 155 175 142 156 143 141 147 147 169 216 272 284 286 279 273 291 297 307 293 295 301 307 298 294 300 299 297 292 291 290 294 297 293 287 288 288 284
121 256 242 224 196 180 171 152 147 143 144 146 147 161 174 200 249 269 270 286 286 308 305 300 304 292 280 299 299 304 305 306 306 304 304 302 294 287 286 287 287 285 285 281
251 276 301 239 202 176 150 140 134 136 145 157 153 180 197 230 262 274 285 292 297 289 281 285 291 282 287 301 303 303 303 303 303 300 300 300 293 290 288 284 282 285 280 278
247 209 190 239 192 163 152 168 162 146 147 167 171 190 225 263 268 272 280 286 290 280 273 284 290 289 292 295 295 295 299 303 299 302 299 297 298 300 295 295 295 292 290 281
263 200 214 15 152 149 157 156 157 158 164 180 214 211 245 265 273 289 284 278 275 273 285 291 291 290 291 293 288 288 291 297 297 298 295 294 293 294 300 302 295 291 294 291
214 124 59 216 189 158 132 143 147 140 158 204 251 280 269 270 285 279 282 284 282 280 290 289 285 282 289 286 290 289 289 292 292 286 285 288 293 294 295 299 302 303 303 297
237 333 197 126 110 114 106 124 127 142 345 328 307 278 276 276 275 278 282 282 282 280 281 281 273 282 298 290 288 289 290 288 286 281 280 283 292 293 292 296 291 289 298 296
233 33 125 130 130 125 118 111 85 334 307 288 280 281 270 267 274 274 277 275 272 286 286 286 283 288 296 292 286 291 294 291 296 293 290 283 284 286 289 290 291 292 287 288
123 133 118 119 141 135 129 134 202 244 275 276 272 285 291 287 286 283 276 270 251 263 279 285 279 290 289 285 280 284 293 288 286 292 293 286 279 280 284 287 290 292 286 281
129 132 137 142 149 145 182 221 227 250 250 260 283 286 282 274 276 284 286 294 287 287 286 281 274 278 283 279 279 282 284 284 286 284 286 284 282 282 285 290 290 292 290 280
128 128 136 148 171 190 221 242 245 251 274 272 272 270 263 273 281 283 291 288 284 288 290 291 288 293 288 281 280 276 276 282 283 282 282 286 282 285 279 278 280 281 288 281
114 116 143 190 219 221 250 255 261 272 272 278 270 279 289 288 287 287 288 276 276 278 286 283 285 287 286 284 283 278 283 282 283 283 282 282 280 287 284 282 280 281 287 276
217 240 242 255 275 274 250 257 269 275 273 254 263 280 279 284 289 286 283 286 287 292 281 282 279 281 284 287 287 287 287 288 287 287 284 285 293 287 285 280 276 275 288 275
267 257 262 261 260 269 269 259 258 269 268 276 275 264 263 276 280 280 269 250 279 286 283 281 281 277 283 291 295 294 291 292 294 295 293 287 279 283 283 277 276 273 287 269
273 268 270 274 271 270 270 263 267 257 267 271 273 278 270 270 275 279 286 292 254 270 280 285 288 292 299 301 291 295 295 294 292 290 292 299 298 287 280 269 275 274 283 265
262 267 261 264 286 287 284 284 259 259 238 259 267 267 264 282 285 235 251 271 281 286 280 285 294 297 299 294 291 294 295 296 300 312 299 299 307 292 285 280 277 281 277 265
262 262 250 271 269 268 265 271 274 276 261 254 262 267 246 234 231 277 272 273 284 291 289 289 295 301 295 290 295 296 301 308 299 305 301 296 296 301 300 289 275 275 265 243
262 266 260 249 251 268 271 272 261 277 286 284 283 279 267 240 235 250 264 271 278 284 283 291 291 293 293 299 300 311 304 301 300 300 303 297 291 288 284 280 273 270 266 226
260 263 259 268 259 246 246 247 260 269 269 249 263 281 276 271 256 260 263 270 277 279 283 290 291 290 297 309 312 302 300 300 307 304 301 297 293 287 283 280 275 259 232 194